Regional Weather Roundup
Issued by NWS Little Rock, AR

Home | Current Version | Previous Version | Graphics & Text | Print | Product List | Glossary On
Versions: 1 2 3 4 5 6 7 8 9 10 11 12 13 14 15 16 17 18 19 20 21 22 23 24 25 26 27 28 29 30 31 32 33 34 35 36 37 38 39 40 41 42 43 44 45 46 47 48 49 50
000
ASUS44 KLZK 271605
RWRLZK

WEATHER ROUNDUP FOR ARKANSAS
NATIONAL WEATHER SERVICE LITTLE ROCK AR
1100 AM CDT FRI MAR 27 2015

NOTE: "FAIR" INDICATES FEW OR NO CLOUDS BELOW 12,000 FEET WITH NO
SIGNIFICANT WEATHER AND/OR OBSTRUCTIONS TO VISIBILITY.

ARZ001-003-010-029-271700-
NORTHWEST ARKANSAS

CITY           SKY/WX    TMP DP  RH WIND       PRES   REMARKS
FAYETTEVILLE   CLOUDY    42  36  79 N12G18    30.19R
FORT SMITH     MOSUNNY   53  37  54 N22       30.18R
HARRISON       CLOUDY    39  36  89 N9        30.16R
BENTONVILLE    CLOUDY    43  32  65 N14       30.20S
ROGERS         CLOUDY    41  34  75 N13       30.20R
SILOAM SPGS    CLOUDY    45  32  61 N15       30.22R
HIGHFILL       PTSUNNY   43  34  70 N17       30.20R
SPRINGDALE     CLOUDY    41  36  81 N17       30.21R
$$

ARZ004-005-016-271700-
NORTH CENTRAL ARKANSAS

CITY           SKY/WX    TMP DP  RH WIND       PRES   REMARKS
BATESVILLE     CLOUDY    43  37  81 NW6       30.14S
FLIPPIN        CLOUDY    39  34  81 N6        30.17R
MTN HOME       CLOUDY    40  34  79 N7        30.15R
$$

ARZ040-041-271700-
WEST CENTRAL ARKANSAS

CITY           SKY/WX    TMP DP  RH WIND       PRES   REMARKS
MENA           PTSUNNY   54  34  47 N9G20     30.12R
MOUNT IDA      MOSUNNY   54  35  48 VRB6      30.09R
$$

ARZ009-017-025-026-028-271700-
NORTHEAST ARKANSAS

CITY           SKY/WX    TMP DP  RH WIND       PRES   REMARKS
CORNING          N/A     43  30  61 N13G21    30.15R
JONESBORO      CLOUDY    43  38  82 N9        30.13R
NEWPORT        LGT RAIN  45  40  82 N10       30.15R
BLYTHEVILLE    CLOUDY    46  38  73 N15       30.12R
$$

ARZ022-023-033-042-044-271700-
CENTRAL ARKANSAS

CITY           SKY/WX    TMP DP  RH WIND       PRES   REMARKS
LITTLE ROCK    CLOUDY    50  33  52 NE14      30.15R
N LITTLE ROCK  CLOUDY    49  38  65 E8        30.15R
JACKSONVILLE   PTSUNNY   50  37  59 NW10G20   30.14R
SEARCY         CLOUDY    45  39  79 N8        30.16R
HOT SPRINGS    MOSUNNY   54  32  43 NE7       30.12R
RUSSELLVILLE   CLOUDY    49  36  61 N12G21    30.16R
CLINTON        CLOUDY    45  36  70 NW8       30.17S
$$

ARZ036-271700-
EAST ARKANSAS

CITY           SKY/WX    TMP DP  RH WIND       PRES   REMARKS
WEST MEMPHIS   LGT RAIN  45  38  76 VRB7      30.11R
$$

ARZ050-053-066-070-073-271700-
SOUTHWEST ARKANSAS

CITY           SKY/WX    TMP DP  RH WIND       PRES   REMARKS
ARKADELPHIA    FAIR      54  41  61 VRB5      30.13R
CAMDEN         MOSUNNY   57  37  47 MISG      30.10S
TEXARKANA      CLOUDY    56  34  43 W10       30.10R
EL DORADO      MOSUNNY   57  40  52 S7        30.08F
DE QUEEN         N/A    N/A N/A N/A MISG        N/A
$$

ARZ056-057-069-271700-
SOUTHEAST ARKANSAS

CITY           SKY/WX    TMP DP  RH WIND       PRES   REMARKS
PINE BLUFF     CLOUDY    50  42  74 E6        30.12R
STUTTGART      CLOUDY    48  36  61 N5        30.14R
MONTICELLO     PTSUNNY   52  39  61 SE7       30.10S

$$




USA.gov is the U.S. government's official web portal to all federal, state and local government web resources and services.